This demonstration page uses our WeatherBlox Daily Observations layout. Learn more.

Left ArrowRight Arrow

Hourly Observations for August 21, 2020

Temp ( °F °C ) Dew Point ( °F °C ) Humidity (%) Winds ( mph kmh ) Pressure ( in mb ) Visibility ( mi km ) Precip ( " mm )
12:15 am 00:15 Clear 57 13.7 56 13.3 97 97 Calm 29.99 1015 10 16 0.00 0.00
12:35 am 00:35 Clear 56 13.5 56 13.2 98 98 Calm 29.99 1016 10 16 0.00 0.00
12:55 am 00:55 Clear 56 13.5 56 13.3 99 99 Calm 29.99 1016 10 16 0.00 0.00
1:15 am 01:15 Clear 56 13.3 56 13.2 99 99 Calm 29.99 1016 10 16 0.00 0.00
1:35 am 01:35 Clear 56 13.5 56 13.4 99 99 Calm 29.99 1016 7 11 0.00 0.00
1:55 am 01:55 Clear 55 12.8 55 12.7 99 99 Calm 29.99 1016 10 16 0.00 0.00
2:15 am 02:15 Clear with Mist and Fog 55 12.5 54 12.4 99 99 Calm 29.99 1016 4 6 0.00 0.00
2:35 am 02:35 Clear with Mist and Fog 55 12.8 55 12.7 99 99 Calm 29.98 1015 4 6 0.00 0.00
2:55 am 02:55 Clear 54 12.2 54 12.1 99 99 Calm 29.98 1015 7 11 0.00 0.00
3:15 am 03:15 Clear 55 12.7 55 12.7 100 100 Calm 29.98 1015 10 16 0.00 0.00
3:35 am 03:35 Clear 54 12.1 54 12 99 99 Calm 29.98 1015 10 16 0.00 0.00
3:55 am 03:55 Mostly Cloudy with Mist and Fog 52 11 52 10.9 99 99 Calm 29.99 1015 1 1 0.00 0.00
4:15 am 04:15 Mostly Cloudy with Fog 53 11.5 53 11.4 99 99 Calm 29.99 1015 1 1 0.00 0.00
4:35 am 04:35 Mostly Cloudy with Mist and Fog 52 11.3 52 11.2 99 99 Calm 30.00 1016 1 1 0.00 0.00
4:55 am 04:55 Clear 53 11.7 53 11.7 100 100 Calm 29.99 1016 7 11 0.00 0.00
5:15 am 05:15 Clear with Mist and Fog 53 11.9 53 11.9 100 100 Calm 29.98 1015 5 8 0.00 0.00
5:35 am 05:35 Clear 54 12 53 11.9 99 99 Calm 29.99 1016 7 11 0.00 0.00
5:55 am 05:55 Clear 52 11.3 52 11.2 99 99 Calm 30.00 1016 7 11 0.00 0.00
6:15 am 06:15 Clear 51 10.8 51 10.7 99 99 Calm 30.00 1016 10 16 0.00 0.00
6:35 am 06:35 Mostly Cloudy with Mist and Fog 51 10.8 51 10.7 99 99 Calm 30.00 1016 2 2 0.00 0.00
6:55 am 06:55 Mostly Cloudy with Fog 51 10.8 51 10.7 99 99 Calm 30.00 1016 1 1 0.00 0.00
7:15 am 07:15 Mostly Cloudy with Fog 51 10.5 51 10.5 100 100 Calm 30.00 1016 0 0 0.00 0.00
7:35 am 07:35 Sunny with Mist and Fog 52 11 52 11 100 100 Calm 30.02 1016 4 6 0.00 0.00
7:55 am 07:55 Sunny 53 11.8 53 11.8 100 100 Calm 30.02 1017 10 16 0.00 0.00
8:15 am 08:15 Sunny 56 13.6 56 13.5 99 99 Calm 30.02 1017 10 16 0.00 0.00
8:35 am 08:35 Sunny 59 15 58 14.5 97 97 Calm 30.01 1016 10 16 0.00 0.00
8:55 am 08:55 Sunny 61 16.3 60 15.5 95 95 Calm 30.01 1016 10 16 0.00 0.00
9:15 am 09:15 Sunny 65 18.1 61 15.9 87 87 Calm 30.00 1016 10 16 0.00 0.00
9:35 am 09:35 Sunny 67 19.5 62 16.5 83 83 Calm 30.01 1016 10 16 0.00 0.00
9:55 am 09:55 Sunny 68 20.1 62 16.6 80 80 E 3 6 30.01 1016 10 16 0.00 0.00
10:15 am 10:15 Sunny 70 21 62 16.4 75 75 ESE 3 6 30.00 1016 10 16 0.00 0.00
10:35 am 10:35 Sunny 71 21.5 61 16 71 71 E 5 7 30.00 1016 10 16 0.00 0.00
10:55 am 10:55 Sunny 72 22.3 62 16.4 69 69 ESE 5 7 29.99 1016 10 16 0.00 0.00
11:15 am 11:15 Sunny 73 23 61 16.3 66 66 Calm 29.99 1015 10 16 0.00 0.00
11:35 am 11:35 Sunny 74 23.5 61 16 63 63 Calm 29.98 1015 10 16 0.00 0.00
11:55 am 11:55 Sunny 75 23.8 62 16.5 64 64 Calm 29.97 1015 10 16 0.00 0.00
12:15 pm 12:15 Sunny 74 23.5 61 16.2 64 64 ENE 5 7 29.96 1015 10 16 0.00 0.00
12:35 pm 12:35 Sunny 75 24 60 15.8 60 60 ENE 5 7 29.96 1015 10 16 0.00 0.00
12:55 pm 12:55 Sunny 76 24.5 61 16 59 59 Calm 29.96 1015 10 16 0.00 0.00
1:15 pm 13:15 Sunny 77 24.8 60 15.4 56 56 ESE 3 6 29.96 1015 10 16 0.00 0.00
1:35 pm 13:35 Sunny 77 25.1 60 15.6 56 56 E 5 7 29.95 1014 10 16 0.00 0.00
1:55 pm 13:55 Sunny 77 25.2 60 15.3 54 54 Calm 29.95 1014 10 16 0.00 0.00
2:15 pm 14:15 Sunny 78 25.8 60 15.3 52 52 ESE 3 6 29.95 1014 10 16 0.00 0.00
2:35 pm 14:35 Sunny 78 25.6 60 15.5 54 54 Calm 29.94 1014 10 16 0.00 0.00
2:55 pm 14:55 Sunny 78 25.6 59 15.2 53 53 Calm 29.94 1014 10 16 0.00 0.00
3:15 pm 15:15 Sunny 79 26.3 61 16.2 54 54 Calm 29.93 1013 10 16 0.00 0.00
3:35 pm 15:35 Sunny 79 26 61 15.9 54 54 Calm 29.93 1013 10 16 0.00 0.00
3:55 pm 15:55 Sunny 79 26.3 62 16.5 55 55 Calm 29.92 1013 10 16 0.00 0.00
4:15 pm 16:15 Sunny 79 26.3 61 15.9 53 53 Calm 29.92 1013 10 16 0.00 0.00
4:35 pm 16:35 Sunny 79 26.3 61 16.2 54 54 NE 3 6 29.92 1013 10 16 0.00 0.00
4:55 pm 16:55 Sunny 79 26 63 17.2 58 58 NNE 6 9 29.91 1013 10 16 0.00 0.00
5:15 pm 17:15 Sunny 79 25.9 62 16.7 57 57 NE 6 9 29.91 1013 10 16 0.00 0.00
5:35 pm 17:35 Sunny 79 26 63 17 58 58 NE 6 9 29.91 1013 10 16 0.00 0.00
5:55 pm 17:55 Sunny 78 25.8 63 17 58 58 NNE 6 9 29.91 1013 10 16 0.00 0.00
6:15 pm 18:15 Sunny 78 25.7 63 17.1 59 59 NNE 6 9 29.91 1013 10 16 0.00 0.00
6:35 pm 18:35 Sunny 78 25.3 62 16.9 60 60 N 6 9 29.91 1013 10 16 0.00 0.00
6:55 pm 18:55 Sunny 77 25 64 17.5 63 63 NNE 5 7 29.91 1013 10 16 0.00 0.00
7:15 pm 19:15 Sunny 76 24.7 62 16.9 62 62 NNE 3 6 29.91 1013 10 16 0.00 0.00
7:35 pm 19:35 Sunny 75 23.9 65 18.3 71 71 N 3 6 29.91 1013 10 16 0.00 0.00
7:55 pm 19:55 Sunny 74 23.1 65 18.4 75 75 N 3 6 29.92 1013 10 16 0.00 0.00
8:15 pm 20:15 Sunny 71 21.7 64 18 80 80 NNW 3 6 29.92 1013 10 16 0.00 0.00
8:35 pm 20:35 Clear 69 20.8 64 17.7 83 83 N 3 6 29.92 1013 10 16 0.00 0.00
8:55 pm 20:55 Clear 66 18.8 63 17.3 91 91 Calm 29.94 1014 10 16 0.00 0.00
9:15 pm 21:15 Clear 64 18 62 16.6 92 92 Calm 29.94 1014 10 16 0.00 0.00
9:35 pm 21:35 Clear 64 17.9 62 16.5 92 92 Calm 29.95 1014 10 16 0.00 0.00
9:55 pm 21:55 Clear 63 17.3 61 16.3 94 94 Calm 29.96 1014 10 16 0.00 0.00
10:15 pm 22:15 Clear 63 17 61 15.9 93 93 Calm 29.96 1014 10 16 0.00 0.00
10:35 pm 22:35 Clear 61 16 60 15.5 97 97 Calm 29.96 1015 10 16 0.00 0.00
10:55 pm 22:55 Clear 60 15.5 59 14.9 96 96 Calm 29.96 1015 10 16 0.00 0.00
11:15 pm 23:15 Clear 59 15.2 58 14.7 97 97 Calm 29.96 1015 10 16 0.00 0.00
11:35 pm 23:35 Clear 60 15.3 59 14.9 97 97 Calm 29.96 1015 10 16 0.00 0.00
11:55 pm 23:55 Clear 58 14.6 57 14.1 97 97 Calm 29.95 1014 10 16 0.00 0.00

Powered by AerisWeather